Phenix City, Alabama, United States (36867)
Lat: 32.47N, Lon: 85W
Wx Zone: ALZ048
Local Info
Past Weather Observations for Yesterday

NOTE: This archive is for the closest National Weather Service station to Phenix City. Information may differ from the station used for current weather conditions.

Click here for Long-term Archive

Time Weather Temperature Dewpoint Humidity Pressure Winds Precip Visibility
23:51
Partly Cloudy
66°F / 19°C 57°F / 14°C 73% 29.86 in
(1011 mb)
NW 10.4 mph
(NW 17 kph)
- 10SM
22:51
Partly Cloudy
68°F / 20°C 59°F / 15°C 73% 29.86 in
(1011 mb)
NW 6.9 mph
(NW 11 kph)
- 10SM
21:51
Partly Cloudy
70°F / 21°C 61°F / 16°C 73% 29.86 in
(1011 mb)
NW 6.9 mph
(NW 11 kph)
- 10SM
20:51
Partly Cloudy
70°F / 21°C 61°F / 16°C 73% 29.86 in
(1011 mb)
NW 5.8 mph
(NW 9 kph)
- 10SM
19:51
Mostly Cloudy
72°F / 22°C 61°F / 16°C 69% 29.86 in
(1011 mb)
NW 6.9 mph
(NW 11 kph)
- 10SM
18:51
Mostly Cloudy
73°F / 23°C 61°F / 16°C 65% 29.83 in
(1010 mb)
NW 10.4 mph
(NW 17 kph)
- 10SM
17:51
Partly Cloudy
75°F / 24°C 61°F / 16°C 61% 29.83 in
(1010 mb)
NW 9.2 mph
(NW 15 kph)
- 10SM
16:51
Mostly Cloudy
77°F / 25°C 63°F / 17°C 61% 29.83 in
(1010 mb)
NW 11.5 mph
(NW 19 kph)
- 10SM
15:51
Mostly Cloudy
77°F / 25°C 63°F / 17°C 61% 29.83 in
(1010 mb)
NW 12.7 mph
(NW 20 kph)
- 10SM
14:51
Mostly Cloudy
77°F / 25°C 63°F / 17°C 61% 29.86 in
(1011 mb)
SSW 9.2 mph
(SSW 15 kph)
0.00 in
(0.00 mm)
10SM
14:05
Mostly Cloudy
79°F / 26°C 64°F / 18°C 61% 29.89 in
(1012 mb)
WNW 8.1 mph
(WNW 13 kph)
- 10SM
13:51
Mostly Cloudy
75°F / 24°C 64°F / 18°C 69% 29.89 in
(1012 mb)
NW 10.4 mph
(NW 17 kph)
0.00 in
(0.00 mm)
10SM
13:39
Overcast
Light Rain
75°F / 24°C 64°F / 18°C 69% 29.89 in
(1012 mb)
W 11.5 mph
(W 19 kph)
0.00 in
(0.00 mm)
10SM
13:00
Overcast
Light Rain
73°F / 23°C 64°F / 18°C 74% 29.89 in
(1012 mb)
W 9.2 mph
(W 15 kph)
0.00 in
(0.00 mm)
10SM
12:51
Overcast
Thunder Storms
73°F / 23°C 64°F / 18°C 74% 29.92 in
(1013 mb)
W 8.1 mph
(W 13 kph)
0.01 in
(0.25 mm)
10SM
12:32
Overcast
Light Rain
75°F / 24°C 64°F / 18°C 69% 29.92 in
(1013 mb)
W 9.2 mph
(W 15 kph)
0.00 in
(0.00 mm)
10SM
12:25
Overcast
Light Rain
75°F / 24°C 64°F / 18°C 69% 29.92 in
(1013 mb)
SSW 6.9 mph
(SSW 11 kph)
0.00 in
(0.00 mm)
10SM
11:51
Overcast
75°F / 24°C 64°F / 18°C 69% 29.92 in
(1013 mb)
SW 10.4 mph
(SW 17 kph)
- 10SM
11:21
Mostly Cloudy
75°F / 24°C 64°F / 18°C 69% 29.95 in
(1014 mb)
SSW 8.1 mph
(SSW 13 kph)
- 10SM
10:51
Overcast
73°F / 23°C 64°F / 18°C 74% 29.95 in
(1014 mb)
NW 8.1 mph
(NW 13 kph)
- 10SM
09:51
Overcast
70°F / 21°C 63°F / 17°C 78% 29.95 in
(1014 mb)
NW 4.6 mph
(NW 7 kph)
- 10SM
09:17
Overcast
70°F / 21°C 63°F / 17°C 78% 29.95 in
(1014 mb)
W 5.8 mph
(W 9 kph)
- 10SM
08:51
Overcast
70°F / 21°C 63°F / 17°C 78% 29.95 in
(1014 mb)
SSW 5.8 mph
(SSW 9 kph)
- 10SM
08:25
Overcast
70°F / 21°C 63°F / 17°C 78% 29.95 in
(1014 mb)
WNW 6.9 mph
(WNW 11 kph)
- 10SM
07:51
Overcast
68°F / 20°C 63°F / 17°C 83% 29.95 in
(1014 mb)
NW 5.8 mph
(NW 9 kph)
- 10SM
07:23
Overcast
68°F / 20°C 63°F / 17°C 83% 29.95 in
(1014 mb)
Calm - 10SM
06:51
Overcast
66°F / 19°C 63°F / 17°C 88% 29.92 in
(1013 mb)
NW 9.2 mph
(NW 15 kph)
- 10SM
06:46
Overcast
66°F / 19°C 63°F / 17°C 88% 29.92 in
(1013 mb)
NNW 6.9 mph
(NNW 11 kph)
- 10SM
06:03
Overcast
66°F / 19°C 64°F / 18°C 94% 29.92 in
(1013 mb)
W 5.8 mph
(W 9 kph)
- 10SM
05:51
Overcast
66°F / 19°C 64°F / 18°C 94% 29.92 in
(1013 mb)
WNW 5.8 mph
(WNW 9 kph)
- 10SM
05:41
Overcast
66°F / 19°C 64°F / 18°C 94% 29.92 in
(1013 mb)
W 5.8 mph
(W 9 kph)
- 10SM
04:51
Overcast
66°F / 19°C 64°F / 18°C 94% 29.92 in
(1013 mb)
W 4.6 mph
(W 7 kph)
- 10SM
04:32
Overcast
66°F / 19°C 64°F / 18°C 94% 29.92 in
(1013 mb)
W 4.6 mph
(W 7 kph)
- 10SM
03:51
Overcast
66°F / 19°C 64°F / 18°C 94% 29.92 in
(1013 mb)
W 6.9 mph
(W 11 kph)
- 10SM
03:31
Overcast
68°F / 20°C 64°F / 18°C 88% 29.89 in
(1012 mb)
W 4.6 mph
(W 7 kph)
- 10SM
02:51
Overcast
68°F / 20°C 64°F / 18°C 88% 29.89 in
(1012 mb)
W 3.5 mph
(W 6 kph)
- 10SM
02:49
Overcast
68°F / 20°C 64°F / 18°C 88% 29.89 in
(1012 mb)
W 3.5 mph
(W 6 kph)
- 10SM
02:33
Mostly Cloudy
66°F / 19°C 64°F / 18°C 94% 29.92 in
(1013 mb)
SSW 4.6 mph
(SSW 7 kph)
- 10SM
01:51
Clear
68°F / 20°C 64°F / 18°C 88% 29.92 in
(1013 mb)
SSW 3.5 mph
(SSW 6 kph)
- 10SM
00:51
Mostly Cloudy
70°F / 21°C 64°F / 18°C 83% 29.92 in
(1013 mb)
W 3.5 mph
(W 6 kph)
- 10SM
Time Weather Temperature Dewpoint Humidity Pressure Winds Precip Visibility


Weather for websites

WeatherForYou.com, LLC is not responsible for any damages or problems caused by this service. Current weather conditions are obtained from the closest station including government and personal stations which may have varying degrees of accuracy. Weather forecasts are derived from the NOAA NDFD. Like all things, this site belongs to Jesus Christ... He just trusts us to maintain it. If you have any questions or comments email webmaster@weatherforyou.com

Copyright © 2016, WeatherForYou.com LLC. All rights reserved.